Orbital Elements at Epoch 2454600.5 (2008-May-14.0) TDB
Reference: JPL 28 (heliocentric ecliptic J2000)
Element | Value | Uncertainty (1-sigma) | Units |
e | .2778696858957271 | 2.7229e-06 | |
a | 6.026624449643037 | 3.0009e-05 | au |
q | 4.352008206809217 | 3.8013e-05 | au |
i | 7.876259957123408 | 4.403e-05 | deg |
node | 181.6628521623731 | 0.000111 | deg |
peri | 175.0898791076227 | 0.0037691 | deg |
M | 17.63169377829871 | 0.0021457 | deg |
tp | 2454335.832171364898 (2007-Aug-23.33217136) | 0.030234 | TDB |
period | 5403.928828772477 14.80 | 0.040363 0.0001105 | d yr |
n | .06661819787174647 | 4.9758e-07 | deg/d |
Q | 7.701240692476856 | 3.8348e-05 | au |
|
| | Orbit Determination Parameters
Additional Information
|